Hourly Weather Roundup
Issued by NWS Central Illinois

Home | Current Version | Previous Version | Text Only | Print | Product List | Glossary On
Versions: 1 2 3 4 5 6 7 8 9 10 11 12 13 14 15 16 17 18 19 20 21 22 23 24 25 26 27 28 29 30 31 32 33 34 35 36 37 38 39 40 41 42 43 44 45 46 47 48 49 50
000
NZUS43 KILX 241010
HWRILX

AREA WEATHER ROUNDUP
NATIONAL WEATHER SERVICE, LINCOLN IL
500 AM CDT SUN MAY 24 2015


CITY           SKY/WX    TMP DP  RH WIND       PRES   REMARKS
BLOOMINGTON    CLOUDY    63  53  69 SE7       30.17F
CHAMPAIGN      CLOUDY    63  52  67 E6        30.17F
DANVILLE       CLOUDY    63  50  62 SE5       30.16F
DECATUR        CLOUDY    64  51  62 SE7       30.16S
EFFINGHAM      CLOUDY    61  51  69 E6        30.18S
FLORA          MOCLDY    62  52  71 SE6       30.17S
GALESBURG      CLOUDY    64  53  67 E5        30.11F
JACKSONVILLE   CLOUDY    67  54  63 SE8       30.11S
LACON          CLOUDY    59  55  86 N3        30.14F
LAWRENCEVILLE  MOCLDY    60  52  74 E8        30.19R
LITCHFIELD     CLOUDY    65  50  58 SE9       30.13S
$$


CITY           SKY/WX    TMP DP  RH WIND       PRES   REMARKS
LINCOLN        CLOUDY    65  52  64 E5        30.13F
MACOMB         RAIN      65  53  65 S5        30.14R
MATTOON        CLOUDY    62  50  64 SE5       30.16F
MT CARMEL AP   MOCLDY    61  52  72 CALM      30.18S
OLNEY-NOBLE AP MOCLDY    63  52  67 SE7       30.18R
PARIS          MOCLDY    64  51  64 SE6       30.19S
PEORIA         CLOUDY    68  50  52 E3        30.14F
PONTIAC        CLOUDY    62  59  88 NE6       30.18F
RANTOUL        CLOUDY    66  52  60 SE6       30.18S
ROBINSON       MOCLDY    60  52  75 E6        30.19S
SPRINGFIELD    CLOUDY    66  52  60 E8        30.12F
TAYLORVILLE    CLOUDY    63  50  63 SE8       30.14R
$$

...REGIONAL REPORTS...


CITY           SKY/WX    TMP DP  RH WIND       PRES   REMARKS
CHICAGO O`HARE CLOUDY    61  48  62 SE3       30.19S
KANKAKEE       CLOUDY    60  51  74 CALM      30.20S
MOLINE         LGT RAIN  61  54  77 E8        30.12F
MOUNT VERNON   CLOUDY    63  50  63 CALM      30.16S
PITTSFIELD     CLOUDY    65  55  69 E5        30.11S
QUINCY         CLOUDY    61  58  90 E9        30.07F
ROCKFORD       CLOUDY    62  50  64 CALM      30.19S
$$


CITY           SKY/WX    TMP DP  RH WIND       PRES   REMARKS
BURLINGTON     LGT RAIN  60  58  92 S7        30.10F
CEDAR RAPIDS   LGT RAIN  59  56  89 SE8       30.09F
DES MOINES     LGT RAIN  61  57  87 SE10      29.99F
KIRKSVILLE     RAIN      60  59  96 E9        30.03F FOG
OTTUMWA        LGT RAIN  59  58  96 SE8       30.04F
ST LOUIS       CLOUDY    66  54  65 E7        30.10S
$$


CITY           SKY/WX    TMP DP  RH WIND       PRES   REMARKS
TERRE HAUTE    MOCLDY    63  51  65 SE5       30.19F
EVANSVILLE     MOCLDY    60  54  80 NE3       30.19R
INDIANAPOLIS   MOCLDY    62  48  60 SE7       30.21S
LAFAYETTE      CLOUDY    59  50  72 E5        30.20F
MADISON        CLOUDY    53  47  79 CALM      30.16F
MILWAUKEE      MOCLDY    59  44  57 SW5       30.19F
$$




USA.gov is the U.S. government's official web portal to all federal, state and local government web resources and services.